Skip Page Navigation
NASA JPL Caltech
NASA Logo - Jet Propulsion Laboratory + View the NASA Portal
+ Center for Near-Earth Object Studies
JPL Home Earth Solar System Stars & Galaxies Technology
JPL Solar System Dynamics
BODIES ORBITS EPHEMERIDES TOOLS PHYSICAL DATA DISCOVERY FAQ SITE MAP
JPL Small-Body Database Browser
Search: [ help ]  
523465 (2017 FD107)
Classification: Main-belt Asteroid          SPK-ID: 2523465
Ephemeris | Orbit Diagram | Orbital Elements | Mission Design | Physical Parameters | Discovery Circumstances ]

[ show orbit diagram ]
Orbital Elements at Epoch 2459000.5 (2020-May-31.0) TDB
Reference: JPL 9 (heliocentric ecliptic J2000)
 Element Value Uncertainty (1-sigma)   Units 
e .1205017903983657 6.6209e-08  
a 3.058702047470761 4.9726e-08 au
q 2.690122974455387 2.1658e-07 au
i 17.7929057914366 7.6595e-06 deg
node 111.6680618842428 2.4144e-05 deg
peri 266.0635180887558 4.1405e-05 deg
M 6.804932014363949 3.1657e-05 deg
tp 2458963.566073764196
(2020-Apr-24.06607376)
0.00017181 TDB
period 1953.908344245571
5.35
4.7647e-05
1.305e-07
d
yr
n .1842461039998274 4.493e-09 deg/d
Q 3.427281120486135 5.5718e-08 au
  Orbit Determination Parameters
   # obs. used (total)      109  
   data-arc span      4043 days (11.07 yr)  
   first obs. used      2009-10-01  
   last obs. used      2020-10-26  
   planetary ephem.      DE431  
   SB-pert. ephem.      SB431-N16  
   condition code      0  
   norm. resid. RMS      .60007  
   source      ORB  
   producer      Otto Matic  
   solution date      2020-Nov-11 22:43:52  

Additional Information
 Earth MOID = 1.76383 au 
 Jupiter MOID = 2.15272 au 
 T_jup = 3.151 
[ show covariance matrix ]

Ephemeris | Orbit Diagram | Orbital Elements | Mission Design | Physical Parameters | Discovery Circumstances ]

Physical Parameter Table
Parameter Symbol Value Units Sigma Reference Notes
absolute magnitude H 16.2   n/a MPO495496  
diameter diameter 3.859 km 0.151 urn:nasa:pds:neowise_diameters_albedos::2.0[mainbelt] (http://adsabs.harvard.edu/abs/2011ApJ...741...68M)  
geometric albedo albedo 0.099   0.019 urn:nasa:pds:neowise_diameters_albedos::2.0[mainbelt] (http://adsabs.harvard.edu/abs/2011ApJ...741...68M)  

523465 (2017 FD107)          Discovered 2009-Oct-01 by Mt. Lemmon Survey at Mount Lemmon
Reference: Last Updated: 2018-05-31

Alternate Designations
 2017 FD107 = 2010 BJ60 
Ephemeris | Orbit Diagram | Orbital Elements | Mission Design | Physical Parameters | Discovery Circumstances ]
ABOUT SSD CREDITS/AWARDS PRIVACY/COPYRIGHT GLOSSARY LINKS
FirstGov 2020-Dec-02 09:52 UT
(server date/time)  
NASA Home Page
Site Manager:   Ryan S. Park
Webmaster  Alan B. Chamberlin